www.pogodaiklimat.ru
ПОГОДА в Русвель Роадс
Время
и дата
22:53 28.01
23:53 28.01
00:12 29.01
00:22 29.01
00:53 29.01
01:53 29.01
02:53 29.01
03:53 29.01
04:53 29.01
05:53 29.01
06:53 29.01
07:53 29.01
08:53 29.01
09:53 29.01
10:53 29.01
11:53 29.01
12:53 29.01
13:53 29.01
14:53 29.01
15:53 29.01
16:53 29.01
17:53 29.01
18:53 29.01
19:53 29.01
20:53 29.01
21:53 29.01
22:53 29.01
23:53 29.01
00:53 30.01
01:53 30.01
02:53 30.01
03:53 30.01
04:53 30.01
05:53 30.01
06:53 30.01
07:53 30.01
08:53 30.01
09:53 30.01
10:53 30.01
11:53 30.01
12:53 30.01
13:53 30.01
14:53 30.01
15:53 30.01
16:53 30.01
17:53 30.01
18:43 30.01
18:53 30.01
Ветер
(напр.,м/с)
Видим. Явления Облачность Т
(С)
Тd
(С)
f
(%)
Тe
(С)
Тes
(С)
Комфортность P
(гПа)
Po
(гПа)
Тmin
(С)
Tmax
(С)
R
(мм)
R24
(мм)
S
(см)
В 8
{12}
16 км слабый дождь 10/8 630 m
[Ac Ns]
+23.9 +20.6 82 +30 +30 очень
душно
1019.3 1017.7
СВ 3 16 км 10/10 1140 м +23.9 +20.6 82 +30 +30 очень
душно
1018.8 1017.4
СВ 8
{13}
4 км дождь, дымка 10/10 300 m
[Ns]
+22.2 +20.6 91 +29 +29 очень
душно
1017.4
СВ 6
{11}
5 км слабый дождь, дымка 10/10 330 m
[Ns]
+22.2 +20.0 87 +28 +28 душно 1017.4
СВ 2 16 км 10/10 1500 м +22.8 +20.0 84 +29 +29 очень
душно
1018.5 1017.1
В 5 14 км слабый дождь 10/10 990 m
[Ns]
+23.9 +20.0 79 +29 +29 душно 1017.6 1016.0 +21.7 +24.4 1.3
СВ 5 16 км 8/8 1950 м +24.4 +18.9 71 +29 +29 душно 1016.9 1015.4
СВ 5 16 км 8/8 990 м +24.4 +18.9 71 +29 +29 душно 1016.7 1015.0
СВ 5 16 км ясно +23.9 +18.3 71 +28 +28 душно 1016.6 1015.0
СВ 5 16 км 5/5 990 м +24.4 +18.9 71 +29 +29 душно 1017.0 1015.4
СВ 5 16 км 8/8 900 м +24.4 +19.4 74 +30 +30 очень
душно
1017.7 1016.4
СВ 5 14 км 2/2 900 м +24.4 +18.9 71 +29 +29 душно 1018.5 1017.1 +23.9 +25.0 2.8
СВ 6 14 км 8/2 840 m
[Ac]
+25.6 +20.0 71 +31 +32 очень
душно
1019.2 1017.7
С 5 14 км 10/10 1470 м +25.0 +20.0 74 +31 +31 очень
душно
1020.3 1018.8
СВ 4 14 км 10/10 1950 м +26.1 +20.6 72 +33 +33 очень
душно
1019.9 1018.4
СВ 5 16 км 2/2 900 м +27.8 +20.6 65 +35 +40 очень
душно
1019.1 1017.7
СВ 5
{9}
16 км 2/2 990 м +28.3 +20.6 63 +35 +41 очень
душно
1018.4 1017.1
СВ 6
{9}
14 км ясно +27.8 +21.1 67 +35 +41 очень
душно
1017.5 1016.0 +23.3 +28.3
СВ 6
{9}
16 км ясно +27.8 +20.6 65 +35 +39 очень
душно
1017.0 1015.4
СВ 5 16 км 10/0 2250 m
[Ac]
+26.7 +20.6 69 +33 +34 очень
душно
1017.0 1015.4
СВ 6
{9}
14 км 5/2 750 m
[Ac]
+26.7 +20.6 69 +33 +34 очень
душно
1017.3 1015.7
СВ 5 14 км 10/0 2100 m
[Ac]
+25.0 +20.0 74 +31 +31 очень
душно
1017.5 1016.0
СВ 6 16 км 8/8 780 м +25.0 +20.6 77 +31 +31 очень
душно
1017.7 1016.4
СВ 5 16 км ясно +25.0 +20.0 74 +31 +31 очень
душно
1018.3 1016.7 +24.4 +27.8
СВ 5 16 км 5/5 810 м +25.0 +20.6 77 +31 +31 очень
душно
1018.6 1017.1
СВ 6 16 км 8/8 1950 м +25.0 +20.6 77 +31 +31 очень
душно
1019.0 1017.4
СВ 6
{9}
16 км 8/5 630 m
[Ac]
+25.0 +20.6 77 +31 +31 очень
душно
1019.1 1017.4
В 3 16 км 10/5 750 m
[Ac]
+23.9 +20.0 79 +29 +29 душно 1018.7 1017.1
СВ 5 16 км 10/8 780 m
[Ac]
+23.9 +20.6 82 +30 +30 очень
душно
1018.2 1016.7
СВ 5
{11}
10 км слабый дождь 8/8 690 m
[Ns]
+22.8 +19.4 81 +29 +29 очень
душно
1017.7 1016.0 +22.8 +25.6 0.3
СВ 7
{10}
14 км 10/10 900 м +24.4 +19.4 74 +30 +30 очень
душно
1016.6 1015.0
СВ 6
{9}
14 км 8/8 840 м +25.0 +20.0 74 +31 +31 очень
душно
1016.2 1014.7
СВ 6
{9}
14 км 2/2 900 м +24.4 +18.9 71 +29 +29 душно 1016.3 1014.7 0.3
СВ 6
{9}
16 км 8/8 960 м +25.0 +18.9 69 +30 +30 душно 1016.6 1015.0
СВ 6
{10}
14 км 10/10 900 м +23.9 +20.0 79 +29 +29 душно 1017.2 1015.7
СВ 6 13 км 8/8 960 м +25.6 +19.4 69 +31 +31 очень
душно
1018.4 1016.7 +22.8 +25.6 0.3 0.5
СВ 7
{9}
16 км 2/0 2100 m
[Ac]
+26.7 +18.9 62 +32 +32 очень
душно
1019.2 1017.7
СВ 6 14 км 8/8 900 м +27.2 +20.0 65 +33 +34 очень
душно
1019.8 1018.4
СВ 6
{9}
16 км 5/5 870 m
[Ac]
+27.8 +20.6 65 +35 +36 очень
душно
1019.5 1018.1
С 7 14 км 8/8 810 м +26.1 +21.1 74 +33 +34 очень
душно
1018.8 1017.4
СВ 7
{10}
14 км 8/8 840 м +27.8 +20.6 65 +35 +35 очень
душно
1018.0 1016.4
СВ 6 16 км 8/8 1380 м +27.2 +20.6 67 +34 +35 очень
душно
1017.1 1015.7 +25.6 +28.3
СВ 6 16 км 8/8 840 м +27.8 +21.1 67 +35 +36 очень
душно
1016.4 1015.0
СВ 6
{9}
13 км 10/10 840 м +26.7 +20.6 69 +33 +33 очень
душно
1016.3 1014.7
СВ 6 13 км 5/5 810 м +26.1 +20.6 72 +33 +33 очень
душно
1016.5 1015.0
СВ 5 11 км 5/5 810 м +25.6 +20.6 74 +32 +32 очень
душно
1017.0 1015.4
СВ 6 13 км слабый дождь 8/8 870 m
[Ns]
+25.0 +20.6 77 +31 +31 очень
душно
1015.7
СВ 6 14 км 10/10 870 м +25.0 +20.0 74 +31 +31 очень
душно
1017.3 1015.7
Местоположение метеостанции Roosevelt Roads Naval Station, Ofstie Field: широта 18.2553 долгота -65.6433 высота над уровнем моря 12 м.
В архиве по умолчанию представлена погода в Русвель Роадс за последние 1-2 суток. Обновление информации о фактической погоде в базе происходит ежечасно! Архивные данные за месяц целиком и за предыдущие месяцы Вы можете получить, выбрав интересующий диапазон дат из раскрывающегося списка и нажав кнопку "Ввод!".
Внимание! Архив погоды МЕТАР в базе сайта по станциям, не включенным в климатический монитор, хранится не более 60 дней. Нет смысла пытаться выбрать более раннюю дату.
*Определитесь, кто Вы:
Внимание! Время в таблицах - местное (без учета летнего времени). Для получения всемирного времени необходимо вычесть поправку, которая равна -4 ч.
Смотрите также архив погоды в соседних городах и на ближайших метеорологических станциях:
Партнеры нашего сайта:      
Пояснения к столбцам:
  • Ветер - указаны скорость ветра в м/с - средняя за 10 мин, порывы в срок и между сроками (в фигурных скобках) и направление, откуда дует ветер: С - северный,
  • СВ - северо-восточный, В - восточный, ЮВ - юго-восточный, Ю - южный, ЮЗ - юго-западный, З - западный, СЗ - северо-западный.
  • Видимость - горизонтальная дальность видимости в метрах или километрах. При видимости от 1 до 10 км при отсутствии осадков обычно наблюдается дымка, при ухудшении видимости до 1 км и менее - туман. В сухую погоду видимость может ухудшаться дымом, пылью или мглою.
  • Явления - указаны атмосферные явления, наблюдавшиеся в срок или в последний час перед сроком; фигурными скобками обозначены явления, наблюдавшиеся между сроками (за 1-3 часа до срока); квадратными скобками обозначены град или гололедные отложения с указанием их диаметра в мм.
  • Облачность - указаны через наклонную черту общая и нижняя облачность в баллах и высота нижней границы облаков в метрах; квадратными скобками обозначены формы облаков: Ci - перистые, Cs - перисто-слоистые, Cc - перисто-кучевые, Ac - высококучевые, As - высокослоистые, Sc - слоисто-кучевые, Ns - слоисто-дождевые, Cu - кучевые, Cb - кучево-дождевые. Подробнее классификацию облаков см. в Атласе облаков (PDF).
  • T - Температура воздуха - температура, измеренная на высоте 2 м над землей.
  • Td - Температура точки росы - температура, при понижении до которой содержащийся в воздухе водяной пар достигнет насыщения.
  • f - Относительная влажность воздуха - влажноcть воздуха, измеренная на высоте 2 м над землей.
  • Te - Эффективная температура - температура, которую ощущает одетый по сезону человек в тени. Характеристика душности погоды. При расчете учитывается влияние влажности воздуха и скорости ветра на теплоощущения человека.
  • Tes - Эффективная температура на солнце - температура, которую ощущает человек, с поправкой на солнечный нагрев. Характеристика знойности погоды. Зависит от высоты солнца над горизонтом, облачности и скорости ветра. Ночью, в пасмурную погоду, а также при ветре 12 м/с и более поправка равна нулю.
  • P - Атмосферное давление - приведенное к уровню моря атмосферное давление.
  • Po - Атмосферное давление - измеренное на уровне метеостанции атмосферное давление.
  • Tmin - Минимальная температура - минимум температуры воздуха на высоте 2 м над землей.
  • Tmax - Максимальная температура - максимум температуры воздуха на высоте 2 м над землей.
  • R - Количество осадков - Количество выпавших осадков за период времени, мм. При наведении курсора мыши на число - период времени, за который выпало указанное количество осадков.
  • R24 - Количество осадков - Количество выпавших осадков за 24 часа, мм.
  • S - Снежный покров - Высота снежного покрова, см. При наведении курсора мыши на число - состояние снежного покрова и степень покрытия местности в баллах.